Theta_e
344 343 343 343 343 343 344 343 343 342 342 339 339 338 338 338 338 339 341 341 340 340 338 337 338 339 337 336 336 338 339 339 340 338 338 337 337 336 335 335 337 337 334 333 332 333 334 335 335 334 333 331 327 329 330 329 329 329 329 329 328 329 328 327 327 328 329 329 330 331 330 330 329 328 328 328 329 330 330 329 329 329 328 328 328
343 343 342 344 343 343 343 343 342 342 343 341 340 338 337 338 338 338 338 341 341 340 338 338 336 338 337 337 338 338 340 339 339 338 337 337 339 338 335 337 337 337 336 332 333 334 334 334 333 331 330 331 330 330 330 330 329 328 327 329 329 328 328 328 328 327 326 327 327 328 328 328 329 328 328 329 329 330 329 328 328 328 328 328 327
343 342 343 342 341 341 341 342 341 342 343 342 342 340 338 338 339 338 339 341 341 340 339 338 337 336 337 336 338 340 339 340 339 338 337 337 338 338 336 335 337 337 337 338 335 334 334 331 329 329 332 331 331 329 329 329 329 327 328 328 327 327 327 327 327 327 326 327 327 327 327 328 328 328 328 328 328 328 328 328 328 327 327 327 327
342 342 341 341 341 340 341 341 340 341 342 342 341 341 340 339 339 342 343 343 342 341 342 340 339 337 338 335 336 338 338 339 338 338 338 338 337 337 337 336 336 338 338 337 337 334 331 331 331 331 332 331 330 328 328 328 327 328 327 326 324 326 325 324 326 326 326 326 327 327 327 327 326 327 327 327 327 326 326 326 327 328 328 328 328
342 342 341 342 341 341 340 340 341 340 342 342 343 342 341 339 339 341 340 342 342 341 341 342 340 339 337 336 338 338 339 337 337 337 337 337 337 336 337 336 336 338 337 336 338 336 332 332 332 333 333 333 331 329 327 328 328 328 328 327 325 325 326 326 327 328 328 327 327 327 326 326 327 327 327 326 326 326 326 326 327 327 328 329 329
342 341 342 342 341 340 340 340 341 341 342 342 341 341 339 338 338 339 338 340 339 338 337 337 337 337 337 337 338 338 337 336 337 337 337 337 337 337 336 337 336 336 334 336 337 338 338 332 330 333 332 332 331 328 328 328 329 328 326 325 325 325 326 326 326 324 325 326 325 324 325 325 326 326 326 326 326 326 326 326 327 327 328 329 329
343 342 341 340 340 340 339 339 340 341 341 341 341 341 340 338 338 337 335 336 336 336 336 336 336 334 335 336 335 336 336 336 337 336 336 337 338 337 337 336 337 337 335 335 337 337 337 334 330 330 329 331 331 330 330 329 328 326 326 328 327 326 325 325 326 327 326 326 326 326 326 325 325 325 325 325 326 326 326 327 327 327 327 327 328
343 343 340 340 340 338 340 341 341 341 341 342 341 339 339 338 339 339 335 334 335 335 335 335 335 334 335 335 336 336 335 336 336 335 335 337 336 337 337 336 337 336 335 335 337 337 336 335 334 331 331 330 329 329 330 330 329 328 328 328 325 325 326 325 324 325 325 325 325 326 325 325 326 325 326 326 327 327 327 327 327 327 327 327 327
344 344 343 336 339 340 339 339 341 341 341 341 340 340 339 337 337 339 340 336 333 333 333 335 334 334 334 335 336 335 335 336 336 336 336 335 335 336 336 336 336 336 337 336 338 339 336 336 333 333 331 329 329 328 328 329 329 328 328 328 327 327 326 326 326 326 325 325 326 326 326 326 326 326 326 326 327 326 326 326 326 327 327 328 327
343 343 342 337 338 337 338 339 340 340 340 339 340 340 339 339 334 337 338 337 334 333 333 333 334 333 334 334 336 336 336 336 336 337 336 333 334 335 335 337 336 337 336 338 338 339 339 336 336 335 333 334 332 329 329 329 329 329 328 328 327 326 326 326 326 325 325 325 325 325 325 326 326 326 326 327 327 327 327 327 327 327 327 328 328
342 339 336 335 335 337 338 339 340 340 339 339 338 336 336 336 336 334 336 336 335 334 334 334 334 333 333 335 335 335 336 338 338 335 335 335 334 334 336 336 336 336 336 337 338 340 339 337 336 336 334 333 334 331 332 331 330 329 329 329 329 327 327 328 327 325 325 326 325 324 325 325 326 325 326 327 327 327 327 327 328 328 327 328 328
335 336 335 333 334 337 337 339 340 339 338 336 334 334 333 334 336 335 333 334 334 334 335 334 333 332 332 333 334 334 334 337 337 335 335 335 335 335 334 335 336 336 335 336 337 340 339 337 339 335 336 334 334 333 334 334 334 330 330 330 330 329 329 327 327 327 326 326 325 325 325 325 325 326 327 327 327 327 327 328 328 328 328 328 329
334 334 333 333 335 336 338 338 339 337 336 335 334 334 336 337 336 336 333 331 331 334 335 335 331 329 331 330 332 336 336 334 333 334 335 337 335 334 335 335 335 334 335 337 336 339 340 337 339 339 335 337 334 333 333 333 334 333 334 332 331 330 330 329 328 328 326 326 326 325 325 326 326 327 326 327 327 327 327 327 327 327 328 329 329
335 334 334 333 332 333 335 336 335 335 334 334 334 334 334 337 335 333 333 332 331 334 333 332 328 326 325 324 329 329 331 332 331 332 335 336 334 334 334 334 333 335 335 335 335 337 336 336 338 338 336 336 336 337 337 336 335 333 332 332 332 331 331 330 330 328 327 327 326 326 326 326 326 326 326 326 326 326 326 326 327 328 329 329 329
336 335 335 333 333 334 335 335 335 334 333 333 332 330 332 332 334 333 330 332 331 333 333 334 329 330 331 327 321 319 324 327 330 330 332 335 334 333 333 334 333 335 337 336 334 335 335 335 335 338 339 338 338 337 338 335 336 333 333 332 332 332 333 330 331 329 328 327 327 327 327 327 327 327 327 327 327 328 328 328 329 329 329 329 328
336 335 335 335 334 334 335 335 335 335 335 334 333 331 331 331 334 334 333 327 329 330 334 333 333 330 323 324 324 322 317 320 324 328 332 332 332 332 333 333 334 333 335 336 335 334 334 335 336 337 335 337 339 339 339 339 335 331 330 332 331 330 331 333 331 330 328 327 328 327 328 327 327 328 328 329 330 330 330 330 330 329 328 328 327
337 334 335 334 334 335 334 334 333 334 335 335 334 332 331 332 333 334 333 330 327 329 331 333 334 335 330 323 321 319 319 323 324 325 330 329 330 331 333 332 332 333 334 335 335 334 334 335 337 337 337 337 339 338 339 339 339 338 336 333 333 331 332 332 331 330 328 330 330 329 329 328 328 329 330 330 330 330 330 330 329 328 328 326 326
336 335 335 334 334 334 334 334 333 333 334 334 334 333 332 332 333 333 334 336 332 328 328 332 334 334 335 334 330 322 323 324 322 318 328 330 331 333 333 333 333 332 333 334 334 333 333 336 336 337 336 336 336 337 337 338 338 337 338 335 327 329 329 330 332 330 329 330 331 330 330 330 330 330 330 330 330 331 331 330 328 327 327 326 324
335 334 335 334 334 334 334 334 336 334 335 334 334 332 332 333 335 336 334 334 332 328 327 328 331 332 332 333 331 330 331 325 320 324 318 324 330 330 329 331 330 330 331 331 333 333 333 333 334 335 334 334 335 336 335 334 333 332 328 326 324 324 327 325 328 333 333 329 332 332 331 331 331 330 330 330 330 330 329 328 327 327 325 324 323
334 333 334 333 333 333 335 334 334 334 335 333 334 335 334 334 335 336 334 331 332 330 329 329 326 327 331 330 331 332 333 332 330 324 321 318 320 327 329 330 331 332 332 331 331 332 330 332 333 332 333 333 333 333 333 333 334 334 333 324 324 324 324 325 324 320 325 334 331 333 331 331 330 331 331 330 329 328 327 326 326 325 323 322 322
333 333 333 333 334 333 334 333 334 334 334 334 335 335 334 332 332 331 331 330 331 332 331 329 329 329 328 328 330 331 331 331 330 329 324 321 320 321 322 326 330 331 331 332 332 332 332 332 331 331 332 331 332 332 331 332 332 333 330 321 323 323 323 322 318 319 318 330 331 330 330 330 330 331 331 329 328 327 326 325 324 323 322 321 322
332 333 332 333 333 333 334 333 334 334 334 334 334 333 333 333 332 331 331 330 331 332 332 332 332 333 330 329 328 329 328 327 328 327 326 326 321 319 322 321 320 325 330 331 331 332 331 331 331 330 331 330 330 330 331 331 331 332 328 320 322 323 323 321 316 315 315 325 331 330 330 329 330 331 330 328 328 327 325 325 324 323 322 321 321
332 332 334 334 333 334 334 334 334 335 334 334 335 332 333 334 334 333 332 331 330 332 333 335 334 333 331 331 330 329 328 327 327 327 326 323 321 321 322 322 322 322 327 331 331 331 330 331 330 330 330 330 329 329 330 330 327 325 321 322 321 324 322 317 314 313 317 325 330 330 330 331 331 330 328 327 327 326 325 325 324 322 320 320 320
331 329 331 333 333 333 334 334 333 334 334 335 335 334 334 334 334 333 332 332 333 333 334 334 334 332 332 332 332 333 333 330 331 330 328 326 324 322 321 322 323 324 326 329 330 329 329 329 329 330 330 328 329 329 329 330 329 320 325 321 322 322 321 319 315 315 314 323 325 329 329 331 331 329 328 327 326 325 325 324 323 321 320 320 320
329 328 330 331 332 332 332 332 333 334 335 335 335 336 335 334 333 332 332 331 331 332 331 332 332 331 331 333 334 334 332 334 333 331 331 330 327 323 322 324 321 322 325 327 326 327 328 328 329 329 330 329 328 328 328 330 330 322 321 321 317 316 319 323 320 317 315 315 320 326 329 329 330 328 326 326 326 325 325 323 320 318 318 320 319
331 329 330 331 331 332 333 333 334 335 335 336 336 335 335 334 334 333 332 331 332 333 333 335 335 335 337 334 334 332 334 334 333 332 330 329 326 325 322 322 323 320 323 324 327 325 326 328 329 330 329 329 328 329 329 329 331 319 320 328 322 317 316 319 322 321 316 312 313 316 318 323 325 325 324 325 325 320 317 315 313 313 311 313 317
333 332 331 331 332 333 334 334 334 334 335 335 335 335 335 335 335 335 334 332 332 333 334 335 333 334 335 334 333 334 333 331 333 332 331 330 330 328 324 319 320 322 321 323 325 325 326 326 328 329 330 330 329 329 330 330 324 315 318 331 328 313 315 316 321 322 317 313 311 311 311 314 316 316 317 316 313 315 318 317 314 312 310 311 315
334 333 332 331 331 331 332 334 334 335 334 335 334 334 335 335 335 333 332 332 332 333 334 335 335 335 336 336 334 332 331 330 332 333 331 333 332 331 328 325 320 316 319 319 321 323 327 324 327 329 329 328 328 329 326 326 328 318 324 330 330 325 312 313 317 319 315 313 311 309 309 310 311 311 312 315 317 317 317 317 316 313 310 313 318
333 333 333 331 331 330 331 333 334 334 333 334 334 332 331 330 333 334 331 331 332 333 334 333 334 335 336 335 334 333 332 333 333 333 333 334 332 331 330 328 326 321 317 316 318 320 324 326 323 325 328 328 328 329 328 327 322 324 330 330 330 330 315 313 312 313 311 311 312 311 311 312 312 313 315 318 319 319 317 316 315 313 311 317 319
333 333 332 332 332 331 332 333 333 333 332 332 331 329 329 329 331 333 334 333 332 334 332 332 334 337 335 335 335 334 334 333 332 334 334 333 332 331 330 330 330 325 322 319 319 323 323 327 327 324 325 327 327 327 328 327 313 321 327 328 328 329 309 310 310 309 308 309 308 306 306 309 311 314 317 318 318 317 315 314 313 313 315 319 319
332 332 332 332 333 332 333 332 332 332 332 331 331 329 329 328 330 330 333 334 333 332 333 332 334 334 333 333 335 333 329 329 332 333 334 333 332 331 331 331 330 330 326 323 320 323 328 325 325 326 325 326 326 327 326 326 319 321 327 328 326 311 312 313 309 308 309 310 306 306 310 311 310 312 314 317 317 315 314 315 316 315 318 319 316
332 332 332 332 332 332 332 332 331 331 330 330 330 330 329 328 329 330 331 331 331 333 332 333 332 333 334 333 333 332 330 330 332 332 332 333 333 331 331 330 330 329 327 324 322 321 327 328 326 325 326 326 325 325 326 324 315 312 326 325 320 312 323 325 309 308 308 307 307 312 318 315 311 313 315 317 318 316 317 318 318 318 317 314 311
332 332 331 332 332 332 331 330 330 330 330 329 329 329 329 328 329 330 328 329 329 329 328 330 332 334 333 333 333 333 332 333 333 333 332 332 332 332 331 330 329 329 327 326 323 323 324 324 326 324 325 325 323 325 323 325 324 321 317 323 323 323 322 323 323 306 306 307 307 308 311 308 308 315 316 314 316 316 313 312 312 310 312 312 308
331 331 332 332 332 332 332 331 330 330 330 329 329 329 329 329 328 329 330 329 329 329 331 330 333 333 335 333 331 333 333 333 333 331 332 330 330 329 329 329 328 328 330 326 324 323 322 322 322 322 323 324 323 324 326 325 324 322 320 320 320 320 318 320 319 321 302 306 305 305 306 307 306 309 310 307 308 309 309 308 309 308 309 307 303
331 332 333 333 332 332 331 330 330 330 329 329 329 330 330 329 327 328 329 329 329 329 331 332 332 332 331 330 330 333 333 334 334 333 333 331 330 329 329 329 328 329 328 328 325 323 323 322 324 322 322 322 324 322 323 325 324 322 319 318 318 316 316 318 316 316 302 302 302 303 303 304 305 305 306 306 306 306 306 306 306 306 305 304 302
330 331 333 333 331 330 330 330 330 329 329 328 330 331 331 331 329 328 328 328 329 332 333 333 333 332 331 330 332 333 332 333 332 332 331 332 331 330 329 329 329 328 329 329 328 325 323 321 320 321 322 323 322 319 321 321 321 319 319 318 317 316 316 314 315 315 306 300 301 302 303 304 304 304 304 304 306 305 305 305 304 304 303 303 303
329 330 331 332 330 330 328 329 330 330 329 329 331 332 334 334 331 330 330 329 330 334 335 335 333 333 333 332 332 332 333 332 331 331 331 331 330 330 329 328 327 329 328 327 327 327 325 323 321 319 321 321 321 319 319 318 317 317 316 315 315 315 316 316 314 312 304 299 302 302 303 303 303 303 303 303 303 304 303 304 304 303 303 303 302
328 329 330 330 330 329 330 330 332 331 330 331 332 333 334 335 332 331 332 331 333 335 334 335 334 335 334 334 333 333 331 331 331 331 331 331 330 330 329 328 327 328 327 326 327 326 325 324 324 318 318 318 316 317 318 319 318 315 314 314 313 313 313 314 314 312 313 311 313 310 304 303 302 301 303 303 303 302 302 303 303 303 303 302 302
328 327 327 326 327 329 330 330 330 330 330 331 333 334 334 334 334 334 334 333 332 335 334 334 334 335 335 334 334 334 332 332 332 332 331 331 331 330 330 330 327 327 327 326 325 325 325 323 321 322 319 318 320 317 314 316 317 315 315 314 313 312 314 313 314 313 314 313 309 305 307 307 305 306 303 301 302 302 302 302 302 302 302 301 301
328 327 324 324 326 327 328 328 327 327 328 330 332 333 333 333 333 333 333 333 332 332 333 333 334 335 335 335 334 334 334 333 333 333 333 332 331 331 331 330 329 326 326 325 325 324 323 323 321 318 318 317 315 315 312 312 313 312 312 313 312 314 315 316 315 314 313 314 314 312 306 305 304 302 301 301 301 301 301 301 302 303 302 301 300
327 327 325 325 325 326 327 326 324 325 327 329 331 332 332 331 333 332 333 332 332 331 330 332 332 332 333 333 334 334 334 328 319 322 323 322 331 330 330 330 329 328 327 326 325 323 324 322 319 319 316 315 315 315 313 313 313 314 316 315 313 315 314 314 315 315 312 312 314 312 311 314 310 312 311 311 312 307 306 302 305 304 302 301 300
327 327 325 325 325 326 324 323 324 325 327 328 323 315 318 330 331 331 332 333 332 331 330 330 329 328 329 330 327 317 313 311 308 303 303 306 311 324 329 329 328 327 326 324 323 323 322 319 318 316 315 315 315 316 316 316 316 314 313 314 312 314 314 315 316 316 315 314 314 314 314 314 314 314 314 315 315 315 316 315 315 310 305 301 300
325 325 324 323 324 325 324 322 321 321 321 318 302 304 307 311 327 331 332 332 332 331 330 328 326 325 324 323 322 316 313 309 306 297 297 297 297 298 299 302 310 329 325 322 322 322 318 318 316 316 314 314 315 316 315 315 315 314 314 315 315 316 316 315 313 315 316 316 315 315 317 317 318 317 318 318 317 319 318 318 302 302 300 300 299
322 323 324 322 322 322 322 322 320 318 315 301 295 299 301 305 315 331 331 331 330 329 327 327 325 324 322 321 320 320 320 315 311 307 301 296 296 295 295 296 295 294 299 321 320 318 319 316 315 316 318 319 317 316 314 315 316 317 318 318 318 318 318 316 315 314 316 319 318 319 320 318 318 317 318 317 318 319 316 305 300 300 299 300 300
319 319 319 318 315 315 316 317 316 314 311 295 295 297 300 302 306 319 329 329 328 326 324 323 322 322 322 321 320 319 316 314 315 313 311 307 300 298 300 300 299 298 295 294 300 326 325 322 322 321 322 322 322 322 323 323 324 323 320 319 319 318 317 316 315 314 316 319 319 318 317 319 319 317 317 319 319 319 316 302 298 298 298 298 298
317 316 315 315 313 313 315 315 315 315 313 297 295 297 299 300 304 314 327 325 324 323 322 321 321 321 321 321 320 319 320 321 321 320 319 319 320 321 321 321 319 312 304 302 302 302 315 327 325 322 323 325 322 322 321 322 323 322 322 321 321 319 318 317 316 313 313 316 316 316 314 316 316 316 315 317 318 316 310 301 297 298 298 297 298
314 313 312 311 312 313 314 315 315 313 308 294 295 297 298 299 302 309 322 321 321 320 320 321 321 322 322 322 321 320 320 323 324 321 321 320 320 319 318 317 316 313 312 314 318 321 321 322 322 320 318 319 319 319 319 321 322 321 321 321 321 321 320 318 315 314 311 310 313 316 312 314 313 313 313 314 315 314 312 302 297 298 297 298 297
309 309 308 310 311 312 314 315 313 309 303 294 296 297 298 301 304 318 319 318 317 317 317 318 318 320 321 321 320 319 317 316 307 302 310 318 318 317 315 315 313 310 304 297 295 299 308 311 311 309 307 303 299 308 307 314 320 320 319 321 321 320 318 316 313 312 307 308 307 310 311 310 310 309 310 313 315 312 311 310 299 298 298 298 297
302 302 302 305 308 312 313 313 310 307 305 298 296 297 299 302 308 316 314 314 314 314 313 313 313 314 316 318 318 317 316 314 303 298 300 307 318 316 315 314 312 309 306 302 295 293 293 293 292 292 292 292 293 293 293 292 305 314 320 317 315 317 315 311 311 310 304 303 302 303 307 308 308 307 307 310 312 311 308 307 309 301 298 298 297
300 300 302 303 304 306 308 309 310 309 307 299 296 298 299 301 307 314 313 313 312 311 310 308 308 307 306 307 315 318 316 314 296 297 299 310 314 314 315 312 311 309 308 307 306 301 294 294 293 293 293 294 294 294 294 295 296 305 318 313 315 315 313 312 310 307 303 302 301 303 308 304 307 305 305 308 313 310 307 307 307 306 301 301 298
299 300 300 300 300 301 303 304 304 305 305 301 295 295 297 300 309 313 311 310 309 308 305 303 306 305 305 302 300 305 309 301 293 296 300 309 316 316 315 314 310 309 309 312 312 311 311 310 309 308 305 302 306 306 302 296 297 303 312 313 315 312 309 309 309 308 303 299 301 304 306 302 304 303 303 302 302 307 306 305 306 306 305 305 306
Wind_Speed
7 7 6 6 6 6 5 5 4 4 3 3 3 4 4 4 4 5 5 5 5 5 5 5 5 5 5 6 5 5 4 4 4 4 4 4 4 7 7 6 4 4 7 7 7 6 7 8 8 8 9 8 6 9 8 9 8 8 9 9 10 9 8 8 9 10 11 12 12 13 13 12 12 11 10 12 14 14 14 14 14 14 13 13 14
7 6 7 6 6 6 5 5 4 4 3 3 3 3 4 4 4 4 5 5 5 5 5 5 5 5 5 5 5 4 4 4 4 4 5 4 4 6 7 4 4 5 5 5 6 6 6 8 8 7 7 8 8 8 8 8 8 8 8 10 9 9 10 9 9 9 9 10 10 11 11 11 12 11 13 14 14 14 15 14 14 14 14 14 14
8 7 6 6 6 6 5 4 5 4 4 3 2 3 3 3 3 4 4 4 4 5 5 5 5 5 4 5 4 4 4 4 4 4 5 4 4 5 6 6 6 6 3 1 5 6 6 4 5 5 9 7 7 7 8 8 8 8 9 9 9 9 10 10 10 9 9 10 10 11 12 12 12 12 12 13 14 14 14 14 15 15 15 14 14
8 8 7 7 6 6 5 5 4 5 5 4 3 3 3 4 4 3 2 3 4 4 3 4 4 4 4 5 5 4 4 4 5 4 4 4 4 4 4 5 6 5 5 6 4 4 4 5 5 5 6 7 8 6 6 7 7 8 8 8 8 9 9 9 10 9 9 9 10 11 11 12 12 12 13 13 13 13 13 13 14 14 15 15 15
8 8 7 6 7 7 6 5 5 5 5 6 5 4 4 4 4 4 3 3 4 4 2 2 3 3 4 5 4 4 4 5 4 4 4 4 3 3 4 5 6 5 6 6 6 5 4 4 4 5 6 7 7 6 6 8 7 8 8 8 8 8 9 10 10 10 10 11 11 11 11 12 12 12 13 13 13 13 13 13 13 13 14 15 15
8 7 6 6 6 6 6 5 5 5 5 5 6 5 4 5 5 4 4 3 4 5 5 5 4 4 4 3 4 4 5 4 4 4 4 4 3 3 4 4 4 4 5 6 6 5 5 2 4 6 6 6 7 7 6 7 8 8 7 8 8 8 9 9 9 9 10 10 11 11 11 11 12 12 12 12 12 13 13 12 13 13 13 14 14
8 6 7 6 6 6 6 6 6 6 5 5 5 5 5 5 5 5 5 4 5 5 5 5 5 5 5 5 5 5 5 5 5 5 4 4 4 4 3 3 4 4 4 5 6 7 7 7 6 3 5 7 6 6 7 7 7 6 6 8 7 7 9 9 9 10 10 11 11 11 11 11 11 11 12 12 12 12 12 12 13 13 13 13 13
8 7 6 5 6 6 5 6 7 6 5 5 5 6 5 6 6 6 6 6 6 5 4 5 5 5 5 5 5 5 5 5 5 4 4 4 4 4 3 3 4 3 2 3 3 5 7 5 5 3 5 6 5 6 6 6 7 7 7 8 7 8 8 8 8 10 10 10 11 10 11 11 11 11 11 11 11 12 12 11 11 12 11 11 11
7 6 4 2 5 5 5 6 6 5 4 4 5 4 5 6 6 6 6 6 6 6 5 5 5 5 6 6 6 6 5 5 5 4 4 4 4 4 4 4 4 4 3 2 3 3 6 5 5 4 3 4 4 3 5 6 7 6 7 7 7 8 8 9 9 9 10 11 11 11 11 11 11 10 11 11 12 12 12 12 11 10 10 10 10
5 4 2 5 5 4 5 5 5 5 4 4 4 4 5 7 7 5 5 6 6 6 6 6 5 5 5 6 6 5 5 5 5 5 5 4 4 4 4 3 4 3 3 2 3 2 3 5 4 3 2 2 3 4 4 5 5 6 6 6 6 5 6 8 9 8 8 9 10 10 10 9 9 10 10 10 10 10 10 11 11 11 10 10 10
3 3 2 3 3 3 4 5 5 5 5 4 5 6 6 6 8 7 6 5 6 6 6 6 6 6 6 6 6 5 5 4 4 4 4 5 4 4 3 3 3 3 3 2 2 1 2 2 4 4 5 4 3 3 5 5 5 5 6 7 7 6 5 7 8 7 8 9 9 9 9 8 9 9 9 9 9 9 9 10 9 10 10 9 9
6 4 3 4 3 3 5 5 5 5 5 6 5 6 8 8 8 9 8 6 6 6 7 7 7 6 6 6 6 5 5 4 4 4 4 5 5 4 4 3 3 3 3 2 2 1 1 1 1 3 4 6 3 0 1 3 3 2 5 5 6 5 6 6 7 8 8 8 8 8 8 8 8 8 8 9 8 8 8 9 9 9 9 9 8
5 5 5 5 5 3 5 6 6 5 6 4 5 6 8 9 8 7 9 8 7 7 8 8 8 8 6 6 4 4 4 5 4 4 5 4 4 5 4 4 4 3 2 2 2 2 1 1 1 1 2 3 5 4 3 3 4 5 4 1 3 6 6 6 7 8 8 8 7 7 7 8 7 7 6 7 7 6 6 6 6 6 7 8 9
6 6 6 6 6 7 8 6 6 5 5 4 5 5 6 6 8 7 6 7 7 9 9 9 7 8 7 6 3 3 3 4 5 5 5 5 5 5 4 4 4 2 2 3 2 3 2 2 2 2 2 1 2 2 3 3 5 5 4 1 1 2 5 5 7 8 7 7 7 6 6 6 6 6 5 5 5 5 5 5 5 7 8 10 11
8 7 5 7 7 9 7 6 6 6 6 7 7 7 5 6 7 7 7 6 6 8 10 9 6 7 7 6 5 4 3 3 3 4 6 5 6 6 5 5 4 3 2 2 2 2 2 1 3 3 2 2 1 1 1 1 4 3 3 4 3 1 2 3 7 7 7 7 6 6 6 5 5 5 5 5 5 5 6 6 5 8 11 11 11
9 8 8 8 9 7 5 5 5 6 7 7 8 8 8 8 7 8 8 7 7 8 9 6 5 9 8 4 6 5 4 6 5 4 4 5 6 6 5 4 3 2 1 3 2 1 2 2 1 2 3 2 2 1 1 1 3 2 4 4 3 3 4 6 6 8 7 6 6 7 5 6 5 6 6 5 4 3 5 6 9 12 11 10 10
6 9 8 7 6 6 6 5 5 6 7 8 9 9 7 8 9 10 11 10 10 7 8 8 8 5 4 5 4 5 5 4 7 3 4 4 5 5 4 5 3 3 3 3 2 2 3 3 1 1 2 1 2 1 1 1 2 2 3 4 1 3 4 3 5 9 8 7 7 8 6 5 6 4 5 6 5 5 7 11 12 11 10 10 10
5 9 10 8 7 7 6 6 5 5 7 6 7 7 8 11 12 11 11 8 9 9 9 7 8 4 1 3 2 1 5 6 7 5 4 4 4 4 4 3 3 4 3 3 3 3 3 2 2 1 1 2 1 1 1 1 2 2 1 3 4 3 1 4 4 8 8 6 8 8 8 7 6 6 6 6 6 11 13 12 11 10 10 10 10
6 7 8 9 7 6 8 7 5 5 6 7 8 10 10 10 9 9 7 7 8 9 11 10 7 6 4 1 2 1 3 8 6 5 6 4 4 4 4 4 3 4 4 4 3 2 0 1 2 1 1 2 2 2 2 1 1 1 4 4 2 2 1 2 2 2 2 8 7 9 8 7 8 6 5 5 11 13 11 10 9 10 10 10 10
4 9 8 8 7 8 8 8 7 8 8 10 10 10 8 8 9 6 9 11 8 8 9 10 11 9 7 4 2 1 5 3 3 5 4 6 6 3 3 4 4 4 3 4 4 3 3 3 1 2 1 0 1 2 2 2 2 1 2 4 1 1 2 5 5 4 6 6 6 4 7 6 7 6 8 12 11 10 10 9 9 9 10 10 10
9 7 6 8 8 8 9 9 10 9 9 9 9 9 11 11 9 9 10 9 8 6 7 10 10 8 9 6 4 4 5 3 3 3 4 5 5 7 6 3 3 3 3 2 2 2 3 3 1 1 1 1 0 0 1 1 2 2 1 3 1 1 3 5 5 6 5 5 6 6 5 4 1 11 12 11 10 10 10 10 10 10 9 10 10
8 4 7 8 7 7 9 11 11 11 9 10 10 7 6 8 10 12 11 10 8 8 9 9 10 8 10 8 7 5 5 4 4 5 3 4 2 7 7 8 7 4 3 4 4 4 4 3 2 2 2 1 0 0 0 1 0 2 2 1 2 4 6 6 8 8 6 6 7 3 4 6 7 13 12 11 10 11 11 11 11 10 10 9 9
5 6 7 10 11 10 10 10 10 9 10 11 9 8 7 9 9 11 11 12 10 11 9 8 8 7 10 7 7 8 7 6 6 6 5 5 4 5 6 7 6 6 5 3 3 4 3 3 3 2 1 1 1 1 1 1 1 2 2 2 3 6 7 8 8 9 8 7 7 7 3 6 12 12 11 10 11 11 11 11 11 10 10 9 9
6 8 10 10 11 11 10 11 10 10 11 10 9 8 9 8 8 9 9 10 10 10 9 9 9 7 9 7 7 6 4 4 4 5 5 5 4 5 6 6 6 4 5 4 4 3 3 3 2 2 2 2 1 1 2 1 3 2 4 5 3 5 7 6 7 9 9 6 7 7 6 11 15 12 10 11 11 11 11 11 11 10 10 9 9
7 4 9 10 9 10 10 11 10 10 10 10 10 10 9 8 8 10 10 10 9 10 9 11 11 9 9 8 6 6 5 3 3 4 4 3 4 5 5 6 5 5 5 6 5 3 3 4 3 3 2 2 2 2 2 2 2 4 4 7 4 5 6 6 8 8 8 7 4 6 8 10 9 9 11 11 12 12 12 10 9 8 7 7 8
7 8 10 6 8 9 10 10 10 10 10 11 10 10 9 8 9 9 10 9 9 11 11 11 10 9 7 7 6 6 5 4 4 4 5 5 5 5 6 5 5 6 4 5 5 5 4 3 4 3 3 3 2 3 2 3 4 4 4 4 5 5 6 6 7 7 7 8 5 5 3 6 7 10 11 11 10 9 10 9 8 7 6 6 6
8 8 8 9 8 7 10 11 10 10 10 9 9 9 10 9 8 9 8 8 9 10 9 9 9 10 8 7 6 4 3 2 4 5 5 6 5 6 7 8 6 6 6 6 6 7 5 5 5 4 3 3 3 3 3 3 5 3 3 5 5 5 7 7 8 7 6 8 6 5 8 10 9 9 8 9 10 11 10 9 7 7 6 5 3
6 8 9 8 6 7 10 9 10 9 9 9 8 7 8 8 7 7 9 8 8 12 9 10 9 9 9 7 6 6 5 6 6 5 5 5 5 6 6 7 7 6 6 6 6 6 6 6 5 4 4 4 3 3 2 4 5 4 2 4 5 5 5 7 7 7 6 8 8 9 10 9 10 9 9 10 10 10 9 8 7 6 5 4 4
7 7 7 10 9 10 10 10 10 9 8 7 7 5 5 3 5 8 10 10 9 12 9 9 8 9 7 9 7 6 6 6 6 6 6 5 5 6 6 6 5 5 6 5 6 5 7 6 5 5 4 4 4 4 4 3 4 2 4 4 4 5 5 6 8 8 7 8 9 9 9 8 9 9 9 9 9 8 8 8 7 6 5 4 5
7 7 8 10 11 12 11 10 9 9 9 8 9 8 7 7 8 5 7 10 11 7 8 7 8 6 7 7 6 5 4 4 5 5 6 6 6 6 6 5 5 4 5 4 4 5 5 6 4 4 5 5 4 4 3 3 5 3 3 4 3 5 6 5 7 6 8 7 6 7 8 9 8 8 9 9 9 9 8 8 7 6 5 6 6
7 8 9 10 10 11 9 9 9 9 9 8 9 8 9 7 4 6 7 7 8 9 8 9 7 7 7 7 5 5 6 6 7 5 6 6 6 6 5 4 5 3 3 2 3 5 4 5 4 2 5 6 4 4 3 3 4 0 3 3 4 8 4 5 3 5 5 7 6 6 7 7 8 8 8 8 8 8 8 7 6 5 6 7 6
8 9 9 10 10 10 9 9 9 9 9 9 9 9 9 8 8 9 9 7 7 7 7 6 5 5 7 8 7 6 7 8 8 6 6 6 5 6 5 5 5 4 3 2 1 5 4 2 4 4 4 5 4 5 5 3 4 1 2 2 5 5 4 4 5 3 4 4 6 5 6 6 7 7 7 7 7 7 6 6 6 7 7 6 7
8 9 10 10 10 9 9 9 9 9 9 9 9 9 9 9 8 6 6 7 6 5 6 7 6 7 7 8 8 9 9 9 7 6 6 6 6 5 5 5 5 5 5 3 2 5 4 1 1 3 4 4 4 4 4 4 4 3 2 3 3 2 2 2 4 6 2 2 1 2 4 6 6 6 6 7 7 7 8 8 8 8 8 7 8
9 10 10 9 9 10 9 9 9 9 10 10 10 9 9 8 8 7 8 9 8 8 8 9 8 6 6 7 7 6 7 8 7 7 6 6 7 7 6 6 6 6 5 4 2 5 7 4 3 2 4 3 3 4 3 4 4 3 4 4 3 3 2 3 3 4 6 2 2 1 1 2 5 5 6 7 7 8 8 9 9 8 8 7 7
9 10 10 10 10 10 9 9 9 9 9 9 9 9 10 10 9 9 7 7 8 7 8 8 9 8 8 6 7 7 6 7 6 5 5 6 6 7 7 6 6 6 6 4 4 5 7 6 4 4 4 4 3 4 4 3 3 3 4 4 4 3 3 3 3 2 8 4 4 3 4 4 4 6 6 6 6 7 7 8 8 7 8 7 7
8 9 10 10 10 11 10 9 9 9 10 9 9 8 9 10 7 9 9 9 9 9 8 8 8 8 8 8 8 9 8 8 7 6 6 6 6 6 7 6 5 5 5 4 4 3 5 6 5 4 5 4 4 2 3 3 3 4 3 3 3 3 3 3 3 3 7 7 5 5 5 5 6 6 6 6 6 7 7 7 7 8 8 9 9
8 9 9 10 11 11 10 8 8 10 10 9 10 10 10 11 11 11 11 9 9 8 7 7 8 9 10 10 10 10 9 8 8 7 7 8 7 6 7 7 7 6 4 4 4 3 3 4 5 2 3 3 2 3 3 4 4 3 3 4 3 3 3 2 2 2 5 7 6 7 7 8 7 7 7 7 7 8 8 8 8 9 9 10 10
10 10 10 10 10 11 10 10 10 9 9 9 9 10 9 10 11 12 11 11 10 8 8 7 8 8 9 9 9 9 10 9 8 8 7 9 7 7 8 7 7 5 5 5 4 3 3 2 4 4 3 4 4 3 4 4 3 4 4 4 3 3 2 3 3 3 3 3 3 5 6 7 10 9 8 9 10 10 9 9 9 9 10 10 10
11 10 9 8 4 5 8 8 9 9 9 9 9 8 8 8 8 8 8 8 7 6 7 7 7 7 8 8 8 8 9 8 8 8 8 7 6 7 7 6 6 5 5 5 5 5 4 4 3 2 3 3 2 3 4 2 2 2 2 3 3 3 3 3 3 3 3 3 5 5 4 4 2 4 9 12 11 11 10 9 9 10 11 11 11
11 11 9 9 9 9 8 7 7 7 7 7 7 7 7 8 7 7 7 8 8 7 7 7 7 7 7 7 8 7 7 7 8 8 8 7 6 7 5 5 7 7 6 5 5 5 5 4 3 4 3 3 3 2 3 2 2 3 3 2 2 2 2 2 2 2 2 2 3 4 7 7 8 8 8 9 11 11 11 10 12 12 13 13 13
9 10 8 9 10 10 8 5 5 6 7 6 5 6 6 7 7 8 8 8 8 8 8 7 7 7 6 5 5 5 4 4 5 3 4 2 6 7 5 6 7 7 6 5 5 4 4 3 3 2 3 3 2 3 3 3 4 1 2 1 2 2 1 2 2 2 2 3 2 1 2 2 4 4 4 5 5 10 10 13 10 13 13 12 12
10 10 9 9 10 10 9 7 6 5 4 3 5 9 8 7 7 6 6 7 8 8 9 9 6 4 4 4 4 7 8 7 7 8 7 5 2 1 6 7 7 6 6 6 5 4 3 3 3 3 3 3 3 3 3 2 2 1 1 2 3 1 2 3 1 2 1 1 1 0 0 1 2 2 3 3 1 3 3 4 3 4 3 8 10
8 8 8 9 8 6 7 9 8 4 3 4 7 9 9 10 8 7 7 7 7 7 8 8 7 6 5 5 5 7 8 9 8 10 10 10 9 10 10 9 5 3 7 6 5 5 4 4 4 3 2 3 3 2 2 3 3 3 2 2 2 2 1 3 1 3 3 3 1 2 0 2 2 2 2 2 2 2 2 3 12 7 7 8 8
7 5 5 5 6 7 5 6 6 5 4 5 9 9 11 11 9 7 7 7 6 6 6 7 7 7 7 6 5 4 4 7 9 9 11 12 13 13 13 12 11 12 10 3 6 5 5 5 5 4 3 4 4 3 3 2 2 3 2 1 1 1 1 1 1 2 4 5 4 3 2 5 2 2 2 3 3 3 5 10 11 9 8 8 8
5 4 6 5 5 5 5 7 5 5 4 6 9 10 11 11 10 7 6 7 7 6 5 4 7 7 7 7 7 6 7 11 10 10 12 12 14 17 17 17 15 14 12 13 12 6 6 6 6 5 4 5 5 4 3 2 1 1 2 1 1 0 0 1 2 3 4 6 4 3 4 4 4 3 3 4 5 5 6 9 10 9 9 8 8
4 3 2 5 5 5 5 6 6 4 5 6 10 11 10 10 9 6 7 7 6 6 7 6 5 6 7 9 9 8 8 8 9 12 12 12 11 10 10 10 9 11 13 14 12 13 9 5 5 6 4 3 4 5 3 1 0 1 0 2 1 1 1 4 5 6 5 5 3 3 3 4 5 3 3 4 4 5 6 8 10 10 10 10 11
5 4 2 2 4 5 4 4 5 3 4 10 12 13 13 12 12 9 8 7 7 7 7 6 6 6 7 8 9 9 7 6 6 11 12 12 11 10 11 10 10 9 9 7 6 5 6 7 7 7 6 5 5 4 3 3 4 3 3 2 2 2 4 7 7 5 6 7 6 3 2 5 5 4 4 4 3 4 5 7 10 10 10 10 10
6 5 6 5 6 5 5 4 5 5 5 9 13 14 14 15 13 8 8 8 8 8 8 6 6 5 5 6 8 9 8 6 10 4 13 11 11 11 12 11 11 10 10 8 10 11 10 8 8 7 7 7 8 6 5 3 1 2 2 2 2 2 3 3 4 4 6 6 7 5 3 4 5 5 5 4 2 3 4 5 7 8 8 8 10
9 9 7 7 8 5 6 6 7 8 7 10 10 9 14 15 11 8 8 7 7 9 7 6 6 6 5 5 7 6 10 8 3 0 10 12 10 11 11 10 9 10 9 8 12 15 16 16 16 15 13 12 12 12 11 10 5 2 3 2 2 0 1 1 3 3 5 5 7 6 2 3 5 5 5 3 3 3 4 5 5 5 4 4 6
11 8 7 9 10 8 9 10 9 10 10 11 11 6 6 11 13 10 8 9 8 7 8 8 6 6 9 13 7 7 8 8 5 4 7 11 9 9 11 11 10 10 9 7 7 9 15 16 15 14 12 12 13 14 14 13 13 6 1 3 2 1 1 2 3 5 5 6 6 6 3 4 3 4 4 3 3 2 4 5 5 5 2 2 5
10 8 9 11 8 9 10 11 13 11 9 10 13 11 9 8 8 8 8 6 8 8 8 7 7 8 8 9 12 9 8 8 8 7 7 9 9 9 9 10 10 10 9 7 7 8 8 8 8 9 10 9 9 9 10 14 14 11 7 5 3 3 3 3 2 6 6 6 7 9 3 4 3 5 5 3 4 1 4 5 4 5 7 7 8
Wind_Direction
180 178 174 184 176 181 181 167 160 147 150 153 152 137 127 132 134 137 143 149 151 153 157 156 160 157 154 151 158 148 145 143 135 131 127 130 130 120 112 107 86 121 120 117 120 111 105 107 108 112 106 92 89 94 91 90 97 97 94 90 87 88 88 87 86 78 80 81 76 73 73 75 75 74 76 76 74 74 74 71 67 67 67 69 69
177 178 183 182 172 193 186 177 160 154 172 169 153 138 129 137 137 139 145 154 155 153 161 161 168 160 157 150 153 153 147 148 142 139 134 138 128 126 125 94 87 94 88 109 108 117 113 114 117 104 99 104 100 95 102 101 97 97 91 92 91 89 91 91 88 87 90 81 73 71 72 74 78 78 78 79 77 76 77 73 73 75 76 73 72
178 176 188 178 182 190 192 190 183 176 188 182 146 126 124 131 134 141 151 156 150 155 167 163 166 162 150 151 151 149 150 142 143 141 144 139 135 135 129 111 74 63 35 14 98 109 116 106 88 96 106 107 114 112 111 104 96 95 95 90 92 96 89 92 97 94 89 82 83 82 80 81 83 82 80 78 78 78 76 78 80 81 82 82 80
186 177 181 182 181 187 188 187 199 195 197 195 167 134 122 104 115 124 122 139 139 152 163 163 165 147 151 148 154 156 152 150 151 152 149 145 138 139 141 132 96 58 93 94 105 111 93 112 115 113 112 118 122 111 111 103 103 100 96 97 98 92 92 95 95 95 94 93 84 84 87 87 84 82 81 79 80 81 81 84 77 73 77 81 79
190 181 183 179 181 181 179 182 195 202 202 196 178 149 131 126 122 130 133 123 123 135 141 147 144 130 151 151 153 152 153 163 155 156 156 153 149 140 139 142 137 118 90 78 57 70 102 102 108 98 104 120 120 109 110 114 116 114 112 108 96 101 101 98 92 89 92 90 89 88 89 89 91 89 86 86 88 87 85 80 75 75 77 82 81
187 184 184 179 179 180 176 184 190 195 201 195 192 180 159 134 132 131 118 135 143 149 161 166 150 153 163 143 162 150 166 162 167 163 163 163 153 151 139 141 147 145 131 95 81 69 28 105 114 122 126 120 116 109 121 117 120 114 111 104 111 103 102 101 99 99 96 98 98 98 98 95 93 90 91 92 88 86 88 88 83 78 82 84 83
193 186 186 178 176 176 181 184 185 189 193 199 199 181 167 147 144 135 142 142 148 152 163 162 158 160 157 167 172 162 167 169 171 171 171 159 166 150 148 147 147 150 144 144 120 86 57 59 53 57 122 117 122 127 131 129 114 117 115 113 112 106 106 104 102 101 103 101 101 101 100 102 102 101 97 93 92 91 91 94 94 87 83 80 79
199 192 186 185 180 181 176 178 179 183 191 187 196 187 164 145 152 144 143 147 147 149 155 156 155 153 154 163 167 169 168 174 173 167 169 174 166 157 158 150 159 146 166 132 136 102 73 71 74 76 112 125 133 136 131 129 126 129 122 119 113 114 114 108 106 105 103 103 103 103 103 102 100 100 99 99 96 92 91 93 95 90 83 76 74
206 203 175 184 210 177 169 175 167 177 193 197 197 183 166 156 151 159 151 148 158 148 148 151 150 151 157 165 169 169 173 175 164 162 175 185 169 162 162 160 153 151 179 147 131 125 100 85 99 77 73 110 131 118 116 125 131 131 127 129 129 126 129 114 113 113 108 107 106 107 107 106 105 104 104 101 99 98 100 97 93 88 84 74 72
215 201 153 167 214 167 189 192 174 180 189 203 199 179 174 156 147 156 156 144 156 161 158 156 152 153 164 170 169 173 173 178 159 172 187 182 173 179 160 160 168 163 164 152 115 106 123 123 115 115 100 90 140 152 145 135 135 133 126 132 135 127 121 117 116 113 111 111 110 109 107 106 109 109 106 107 107 104 101 102 96 90 86 78 74
183 111 91 214 195 189 199 212 188 185 192 199 184 171 167 158 151 151 163 170 167 169 162 160 156 157 159 160 166 165 164 161 167 181 192 188 181 179 176 182 174 168 162 157 128 101 96 148 151 159 143 151 170 179 148 155 138 134 133 134 142 138 130 116 114 122 115 116 116 119 119 120 113 110 114 115 112 104 100 97 97 94 88 85 83
58 77 164 186 161 224 209 207 192 186 195 198 177 173 166 164 165 156 154 153 160 165 163 157 145 140 148 158 158 162 162 154 166 182 202 194 191 185 192 183 184 169 186 168 157 106 82 112 145 147 139 151 164 272 132 82 64 154 154 124 141 146 149 128 138 122 123 127 130 126 124 119 121 130 123 111 103 104 100 97 95 90 91 83 77
171 159 178 173 156 227 222 209 194 187 194 188 180 178 179 174 162 161 156 152 161 167 161 154 145 143 150 152 143 156 157 149 177 186 206 201 192 194 189 200 194 185 179 193 188 163 166 161 158 186 166 145 167 148 100 104 101 81 45 23 135 153 149 147 141 131 133 136 131 133 131 134 136 125 117 116 112 110 107 104 90 96 88 88 93
163 145 189 177 163 204 217 208 197 185 164 147 167 149 170 166 157 153 161 154 160 169 163 162 165 161 156 156 138 139 134 159 178 208 209 210 201 194 191 204 204 182 185 215 208 203 197 178 183 212 210 179 154 167 178 164 135 104 100 28 284 188 158 154 151 139 146 140 144 141 149 144 142 133 121 124 125 118 119 113 113 98 95 98 92
138 151 186 195 185 198 198 198 197 185 170 160 168 161 153 161 179 169 162 171 160 171 169 191 165 162 152 142 153 140 149 170 180 206 218 211 205 201 201 204 199 194 210 212 208 204 175 199 210 203 209 227 228 183 207 65 60 76 117 141 142 257 307 206 148 150 152 152 154 150 163 161 155 147 146 139 136 137 131 123 109 109 104 97 92
150 146 196 198 186 190 190 192 199 198 187 178 180 177 169 173 189 191 159 158 172 173 182 195 182 158 166 191 160 194 190 208 185 181 194 207 215 206 200 207 186 168 224 211 222 192 177 201 187 240 222 224 252 268 276 322 95 166 117 148 178 194 208 261 167 147 153 160 167 164 179 173 162 159 154 134 114 132 140 119 115 111 105 98 91
159 161 200 202 176 187 196 180 185 208 195 190 189 182 179 174 195 192 184 178 171 171 180 192 198 200 168 157 165 200 222 157 172 165 193 173 203 205 202 205 185 192 214 193 195 186 188 192 168 244 271 255 203 208 256 212 189 184 142 139 108 189 206 234 219 152 158 163 175 167 180 175 171 160 131 122 124 139 130 118 114 108 102 99 96
195 182 192 191 187 192 196 189 176 204 204 189 194 173 177 187 199 198 191 184 168 168 178 192 205 183 306 338 334 293 185 166 186 175 179 193 175 184 199 190 186 186 199 197 196 201 199 189 186 181 218 258 229 211 222 218 213 202 244 93 8 343 264 203 206 166 167 178 179 173 177 183 166 151 154 147 150 130 122 118 116 114 110 107 104
190 188 190 184 184 183 198 203 187 204 209 197 197 188 184 198 199 195 168 167 176 174 182 185 193 206 205 299 343 317 177 160 196 155 168 179 192 176 176 162 178 186 197 215 217 214 184 247 197 188 172 242 268 282 249 241 30 328 43 47 342 324 224 140 305 357 297 193 194 186 179 177 157 157 159 143 132 123 122 124 120 117 116 115 113
178 211 199 183 182 186 198 204 201 207 209 210 208 199 179 194 196 183 166 173 175 185 187 185 192 196 195 200 199 217 177 181 185 193 178 179 189 188 204 174 179 193 201 211 203 186 152 217 192 173 183 162 291 269 270 249 293 255 157 90 353 333 176 161 184 101 23 341 201 193 171 182 154 148 137 131 130 127 126 125 124 121 120 118 117
198 211 199 202 186 180 194 205 210 209 204 210 211 204 189 191 178 185 181 176 185 190 187 192 198 192 181 192 190 167 160 164 172 195 192 174 178 194 180 155 213 196 189 183 140 168 158 167 147 137 128 107 172 220 265 278 246 238 92 93 44 209 160 169 139 99 45 72 142 203 168 116 107 144 135 133 132 128 125 127 127 126 123 123 121
168 204 225 222 212 189 195 207 212 209 201 208 208 191 184 195 188 188 188 186 184 192 196 195 201 193 192 176 177 157 165 172 188 185 172 225 197 192 181 177 190 187 191 175 160 152 161 127 129 133 110 91 22 241 350 223 199 240 91 61 228 185 171 160 131 133 110 91 106 116 153 125 173 140 136 138 136 132 133 134 133 132 129 125 123
150 190 221 217 220 212 209 207 209 206 207 208 205 178 199 208 192 183 189 188 187 197 201 200 200 192 192 180 181 178 175 186 183 188 195 182 188 165 177 187 182 159 196 163 161 151 152 134 139 135 122 124 86 122 149 106 216 75 8 199 174 173 173 160 144 132 126 105 106 89 33 171 153 134 141 139 139 139 141 140 137 136 134 131 129
156 199 215 210 206 211 209 207 211 209 212 212 207 182 195 205 191 188 190 195 197 199 197 195 195 196 197 194 197 193 185 191 180 192 198 197 198 163 168 174 175 180 158 142 122 150 148 145 132 147 153 108 140 114 110 160 86 43 251 102 147 156 160 149 134 125 112 114 120 126 138 163 142 146 143 145 148 146 147 145 142 141 141 141 137
159 199 232 196 205 211 212 211 208 206 207 206 204 200 192 194 190 193 193 190 197 200 199 200 198 198 199 200 202 196 200 190 188 202 198 194 199 161 155 173 171 169 174 171 158 148 158 158 160 175 159 131 136 141 108 123 96 62 287 96 68 123 139 146 137 146 159 147 150 137 142 159 149 145 148 151 154 153 153 145 138 136 142 143 141
184 177 241 199 208 222 221 216 211 206 206 204 202 201 198 198 195 199 199 196 195 203 207 200 197 197 190 186 199 201 199 185 195 193 185 185 185 169 150 165 173 170 180 192 168 178 165 169 180 174 162 143 140 142 151 122 122 96 357 99 95 108 127 132 147 158 159 151 158 145 210 211 133 138 153 160 154 137 126 126 132 134 132 137 149
205 190 204 233 230 230 227 219 213 210 207 202 198 197 197 201 200 203 199 197 206 206 211 201 203 199 200 196 189 187 154 189 209 200 190 196 186 166 161 158 166 172 181 198 187 213 160 167 185 177 172 151 154 151 150 117 93 83 227 128 106 105 128 138 155 159 167 155 162 171 153 133 132 139 144 130 127 131 133 136 138 137 137 140 136
197 196 198 192 210 236 235 225 220 211 205 201 195 196 201 205 202 197 201 204 209 211 211 208 203 198 199 194 196 187 172 195 214 199 201 196 187 169 175 172 166 177 196 198 199 193 184 178 177 180 175 169 159 145 112 134 115 137 196 121 130 127 122 145 150 154 157 154 147 151 138 136 138 138 136 137 137 139 143 144 145 141 137 138 119
208 199 201 191 189 208 219 219 218 211 202 198 184 158 156 192 237 201 187 196 205 210 204 199 205 192 200 192 197 182 184 198 208 198 196 192 192 184 188 186 189 167 177 201 208 198 178 202 186 163 182 170 164 155 169 123 109 229 104 117 116 123 112 132 139 140 145 146 149 147 144 145 145 143 144 146 147 142 148 150 145 143 147 147 121
213 206 209 200 199 206 217 214 213 209 202 193 189 181 148 170 213 226 211 188 199 199 191 203 201 194 193 193 192 179 152 176 214 201 194 195 193 187 192 197 200 195 162 184 175 202 180 181 221 141 171 168 164 163 152 137 86 277 104 103 113 100 99 111 124 137 141 139 148 154 154 157 154 153 155 156 157 154 154 155 153 152 166 167 153
225 217 211 209 206 198 204 209 205 202 197 194 193 178 172 166 184 220 227 194 200 192 194 195 193 189 187 184 182 170 149 195 213 200 197 196 194 187 189 196 193 214 179 207 169 163 203 174 181 128 149 163 164 147 148 138 121 75 123 108 103 84 132 99 107 134 152 155 156 158 160 158 162 164 164 167 167 164 165 167 165 170 184 181 157
224 225 217 213 209 204 201 202 202 200 192 187 184 184 176 177 179 210 214 213 207 195 184 188 168 183 178 182 178 163 171 195 203 196 195 197 193 190 183 188 185 189 204 206 283 146 184 165 145 146 135 148 164 162 158 153 105 270 117 127 98 145 196 144 123 109 131 150 153 166 166 160 171 173 173 177 180 178 179 179 177 186 194 182 167
225 224 219 214 210 204 198 198 199 196 189 181 183 176 181 189 189 167 153 204 207 166 163 200 185 187 180 179 176 168 178 192 189 188 194 188 182 187 184 186 184 185 201 203 207 136 132 100 121 141 133 157 165 187 167 154 149 140 132 119 147 183 180 184 151 130 121 118 174 179 168 164 177 186 186 187 189 190 188 191 193 196 199 193 179
224 223 218 210 209 205 199 197 200 199 188 186 181 174 177 173 182 176 192 188 192 185 180 180 190 177 168 171 172 169 177 185 178 186 179 178 180 184 184 191 186 185 200 201 169 158 154 162 169 143 152 199 178 175 183 171 157 159 175 167 174 201 186 199 207 152 143 149 156 166 290 193 193 212 198 201 203 198 195 201 202 202 209 205 194
220 224 219 208 205 202 197 195 196 197 186 182 176 181 170 172 175 169 189 195 194 193 187 182 181 174 171 167 182 183 180 179 176 182 165 178 179 183 183 189 188 184 188 198 170 156 162 161 168 172 173 176 222 163 182 173 156 180 189 188 191 183 199 205 216 199 142 167 175 198 217 213 217 221 227 216 217 212 212 213 212 215 217 217 207
215 216 219 209 196 190 187 189 193 192 184 179 181 183 172 173 170 171 180 189 201 195 187 176 172 174 178 180 184 184 183 180 177 173 177 175 182 184 183 179 188 188 183 183 205 145 158 156 181 193 164 173 184 153 154 158 172 190 213 191 199 209 199 194 212 241 144 168 179 203 210 216 218 218 220 229 223 220 224 222 222 223 223 222 219
214 213 213 209 199 192 186 171 184 196 188 182 180 182 176 173 173 179 189 189 199 196 181 181 176 183 186 189 185 184 182 178 175 176 173 178 184 183 181 180 188 188 175 193 194 183 168 162 137 161 158 176 146 146 167 182 174 191 197 216 211 209 197 205 230 214 132 169 191 202 206 208 212 212 214 216 218 224 224 225 225 228 229 229 227
203 205 208 207 207 195 183 177 180 183 186 183 180 180 174 166 174 180 180 186 189 181 181 186 185 189 190 192 180 183 183 179 176 176 171 178 180 182 181 182 178 165 189 192 200 190 193 165 159 153 193 176 168 166 172 197 186 185 188 195 198 213 210 213 221 215 224 197 204 190 197 211 210 214 212 207 218 222 226 224 226 230 234 237 237
205 193 184 173 198 225 196 172 173 172 184 180 180 172 167 165 166 163 163 167 178 179 174 179 184 185 188 187 182 183 181 181 175 172 170 175 183 185 180 178 155 188 189 199 200 189 195 176 167 185 162 163 175 163 160 179 209 241 217 195 210 175 188 219 230 195 201 211 215 218 252 294 320 236 197 212 219 226 227 227 228 231 235 237 237
206 194 176 175 178 195 210 178 167 161 165 175 169 165 162 162 159 159 157 165 171 165 172 176 178 182 185 184 183 183 184 181 180 174 174 179 183 184 171 171 162 180 196 191 198 192 190 191 192 168 172 148 156 90 103 158 190 211 226 261 253 198 182 171 216 244 211 209 234 198 195 212 220 226 225 221 221 228 229 230 229 233 233 234 232
207 197 171 177 170 186 184 163 149 150 167 166 163 160 157 154 156 156 160 161 161 164 168 168 171 172 172 167 177 185 160 99 73 90 115 108 180 177 168 175 173 179 186 185 189 194 191 188 156 149 154 161 152 155 164 184 208 165 111 209 249 243 256 247 192 196 254 254 234 235 229 228 254 255 251 247 213 201 219 221 238 226 233 240 238
208 196 178 176 175 178 163 151 154 157 159 144 151 160 153 153 157 156 158 161 158 161 166 160 150 143 144 142 92 75 87 100 104 109 111 114 41 360 166 176 175 179 179 180 181 184 177 173 159 154 168 165 160 177 175 148 127 137 189 201 247 207 227 230 153 75 54 315 339 279 114 156 273 271 249 264 102 189 287 218 263 342 269 237 247
205 189 172 177 173 151 155 150 149 150 134 130 145 150 145 145 151 154 161 160 160 156 151 148 148 147 139 124 123 116 110 99 91 92 94 92 96 85 70 56 44 148 168 154 153 157 156 150 141 158 145 141 150 158 176 156 175 209 221 217 245 244 270 304 280 131 68 2 322 321 230 82 303 308 349 18 45 335 338 20 29 4 331 317 306
202 161 172 178 145 138 152 157 144 130 123 127 147 147 150 156 156 155 157 154 157 151 151 150 147 149 139 127 120 125 125 122 114 97 85 85 91 89 84 77 66 50 36 79 141 143 138 133 131 125 132 108 116 144 142 165 169 177 188 212 255 315 322 337 4 18 58 0 329 328 347 97 335 360 354 31 19 11 36 33 14 11 350 335 316
119 171 169 127 123 120 141 143 126 118 116 148 144 149 154 157 152 148 147 150 150 148 125 130 144 142 137 127 117 109 113 118 117 118 112 102 96 96 95 88 72 66 62 49 34 60 129 114 120 111 95 117 121 106 101 100 150 119 145 180 125 101 18 65 50 76 31 355 316 320 330 48 6 12 343 22 21 25 56 50 25 25 18 3 348
128 84 80 119 122 135 145 127 127 124 117 135 134 136 134 132 133 122 126 119 115 119 133 136 124 127 131 128 122 122 136 140 131 125 123 118 115 107 98 88 81 66 59 55 54 38 26 78 101 105 84 37 83 99 97 86 16 65 52 80 111 122 75 76 83 82 52 11 348 327 289 58 10 345 24 37 33 63 62 45 24 16 8 2 355
84 90 41 64 115 111 106 106 109 96 94 129 133 128 127 125 114 105 105 103 102 102 94 95 101 111 123 122 127 129 139 141 141 137 126 121 113 107 99 86 77 65 56 52 51 64 64 62 72 84 81 66 76 71 48 41 48 55 37 38 25 45 97 116 105 95 72 33 359 305 315 57 4 342 18 15 41 88 84 80 39 16 8 1 356
57 54 55 6 59 70 86 95 93 81 68 109 127 128 130 126 114 106 107 103 107 102 98 93 95 92 92 93 111 109 91 58 355 88 117 116 109 107 100 97 92 77 63 45 52 61 72 77 74 73 68 60 47 46 20 5 72 102 120 130 139 162 174 178 115 92 62 47 21 8 33 54 12 348 350 5 30 83 66 46 87 35 7 1 359
70 53 50 43 27 40 78 71 87 87 77 77 97 130 135 126 111 106 103 100 100 103 95 84 75 65 59 92 92 105 121 128 129 260 118 115 110 107 105 101 97 93 89 76 69 77 83 84 86 86 84 75 68 57 48 31 16 336 147 149 93 17 265 185 135 89 59 33 26 15 327 32 16 356 339 3 46 56 39 28 21 53 349 352 1
75 63 61 56 45 30 45 62 69 82 72 57 65 73 113 120 123 119 121 118 106 99 97 84 78 67 42 24 74 112 112 114 123 118 108 106 106 111 112 109 103 102 104 109 101 89 91 90 86 84 80 81 76 65 48 39 33 2 28 82 76 278 16 321 108 102 89 51 28 351 287 49 15 20 335 343 165 82 24 33 22 20 13 195 154
73 72 61 59 42 36 45 57 55 64 67 58 54 47 47 89 104 103 106 100 107 105 101 90 80 73 66 39 39 55 91 104 100 89 95 102 106 108 112 107 105 108 117 123 115 114 108 96 88 85 75 64 62 62 54 45 39 37 42 43 25 41 58 56 92 159 145 64 19 341 315 51 14 50 7 354 334 8 32 6 21 18 15 1 355